TimePST,TemperatureF,Dew PointF,Humidity,Sea Level PressureIn,VisibilityMPH,Wind Direction,Wind SpeedMPH,Gust SpeedMPH,PrecipitationIn,Events,Conditions,WindDirDegrees,DateUTC
6:00 AM,46.4,41.0,81,30.08,10.0,ESE,5.8,-,N/A,Rain,Light Rain,120,2013-01-08 14:00:00
7:00 AM,44.6,41.0,87,30.04,8.0,ESE,8.1,-,N/A,Rain,Light Rain,110,2013-01-08 15:00:00
7:14 AM,-9999,-9999,N/A,-9999,4.0,East,4.6,-,N/A,Rain,Light Rain,100,2013-01-08 15:14:00
7:32 AM,-9999,-9999,N/A,-9999,5.0,ESE,6.9,-,N/A,Rain,Light Rain,110,2013-01-08 15:32:00
8:00 AM,44.6,41.0,87,30.02,5.0,SE,10.4,17.3,N/A,Rain,Light Rain,130,2013-01-08 16:00:00
9:00 AM,42.8,39.2,87,30.00,8.0,East,10.4,-,N/A,Rain,Light Rain,100,2013-01-08 17:00:00
10:00 AM,42.8,39.2,87,29.96,5.0,East,9.2,-,N/A,Rain,Light Rain,90,2013-01-08 18:00:00
10:19 AM,-9999,-9999,N/A,-9999,3.0,East,9.2,19.6,N/A,Rain,Light Rain,100,2013-01-08 18:19:00
11:00 AM,42.8,39.2,87,29.92,6.0,ESE,11.5,17.3,N/A,Rain,Light Rain,110,2013-01-08 19:00:00
12:00 PM,42.8,39.2,87,29.88,5.0,SE,15.0,23.0,N/A,Rain,Light Rain,130,2013-01-08 20:00:00
1:00 PM,42.8,41.0,93,29.84,4.0,SE,11.5,17.3,N/A,Rain,Light Rain,130,2013-01-08 21:00:00
1:50 PM,-9999,-9999,N/A,-9999,8.0,SE,11.5,18.4,N/A,Rain,Light Rain,130,2013-01-08 21:50:00
2:00 PM,44.6,41.0,87,29.79,8.0,ESE,11.5,-,N/A,Rain,Light Rain,120,2013-01-08 22:00:00
2:41 PM,-9999,-9999,N/A,-9999,8.0,SE,11.5,17.3,N/A,Rain,Light Rain,130,2013-01-08 22:41:00
3:00 PM,44.6,41.0,87,29.75,10.0,SE,11.5,17.3,N/A,Rain,Light Rain,140,2013-01-08 23:00:00
3:27 PM,-9999,-9999,N/A,-9999,8.0,SE,9.2,17.3,N/A,Rain,Light Rain,130,2013-01-08 23:27:00
3:52 PM,-9999,-9999,N/A,-9999,8.0,SSE,2.3,-,N/A,Rain,Light Rain,150,2013-01-08 23:52:00
4:00 PM,44.6,42.8,93,29.71,8.0,SSE,4.6,-,N/A,Rain,Light Rain,160,2013-01-09 00:00:00
5:00 PM,44.6,42.8,93,29.69,6.0,North,4.6,-,N/A,Rain,Light Rain,10,2013-01-09 01:00:00
5:15 PM,-9999,-9999,N/A,-9999,8.0,NE,2.3,-,N/A,Rain,Light Rain,40,2013-01-09 01:15:00
6:00 PM,44.6,42.8,93,29.66,8.0,NNE,3.5,-,N/A,Rain,Light Rain,20,2013-01-09 02:00:00
7:00 PM,44.6,42.8,93,29.65,8.0,Calm,Calm,-,N/A,Rain,Light Rain,0,2013-01-09 03:00:00
8:00 PM,44.6,44.6,100,29.64,8.0,Calm,Calm,-,N/A,Rain,Light Rain,0,2013-01-09 04:00:00
9:00 PM,46.4,46.4,100,29.65,4.0,South,5.8,-,N/A,Rain,Light Rain,170,2013-01-09 05:00:00